Lapse_Rate
7.4 7.6 7.8 8.5 7.1 7.0 6.4 6.7 6.5 7.0 6.5 6.7 6.7 6.5 6.5 6.7 6.6 7.1 6.5 6.5 6.5 6.5 6.5 6.5 6.5 6.5 6.5 6.9 6.7 6.5 6.5 6.5 6.5 6.5 6.5 6.5 6.5 6.5 6.5 6.5 6.5 6.5 6.5 6.5
7.4 7.5 8.1 6.6 7.1 6.7 6.7 6.8 7.0 6.5 6.9 6.5 6.5 6.5 6.5 6.6 6.5 6.5 6.5 6.5 6.5 6.5 6.5 6.5 6.5 6.5 6.8 7.0 6.5 6.5 6.5 6.5 6.5 6.5 6.5 6.5 6.5 6.5 6.5 6.5 6.5 6.5 6.5 6.5
7.4 7.7 8.2 6.7 6.9 6.9 5.9 6.9 6.5 6.9 6.7 7.2 6.5 6.5 6.5 6.5 7.0 6.5 6.7 6.5 6.6 6.5 6.5 6.5 6.5 6.5 6.5 7.0 6.8 6.8 6.7 6.5 6.5 6.5 6.5 6.5 6.5 6.5 6.5 6.5 6.5 6.5 6.5 6.5
7.9 7.7 7.6 6.7 6.5 6.5 6.3 6.5 6.6 6.9 6.5 6.5 6.5 6.5 6.5 6.5 6.5 6.7 6.9 6.5 6.5 6.5 6.5 6.5 6.5 6.5 6.5 6.6 6.9 6.7 6.5 6.5 6.5 6.5 6.5 6.5 6.5 6.5 6.5 6.5 6.5 6.5 6.5 6.5
7.9 7.8 7.4 6.6 6.8 6.5 6.7 6.8 6.8 7.1 6.9 7.0 6.5 6.5 6.5 6.5 6.5 6.5 6.5 6.5 6.5 6.5 6.5 6.5 6.5 6.5 6.5 6.5 6.5 6.5 6.5 6.5 6.5 6.5 6.5 6.5 6.5 6.5 6.5 6.5 6.5 6.5 6.5 6.5
7.6 7.6 6.9 6.9 6.9 6.3 6.7 6.0 6.0 7.2 6.8 6.5 6.5 6.5 6.5 6.5 6.5 6.7 6.9 6.6 6.5 6.5 6.5 7.0 7.2 7.2 7.1 6.6 6.5 6.5 6.5 6.5 6.5 6.5 6.5 6.5 6.5 6.5 6.5 6.5 6.5 6.5 6.5 6.5
7.3 7.0 6.3 6.2 6.3 5.9 6.0 5.3 6.6 7.1 6.5 6.5 6.5 6.5 6.6 6.5 6.5 6.5 6.9 7.1 6.5 6.6 6.6 6.5 7.6 7.3 7.0 6.9 6.6 6.8 6.5 6.5 6.5 6.5 6.5 6.5 6.5 6.5 6.5 6.5 6.5 6.5 6.5 6.5
7.0 6.2 5.8 6.2 6.0 5.6 4.8 4.3 6.2 7.5 6.5 6.7 6.5 6.6 6.5 6.9 7.1 6.6 6.8 7.1 6.0 6.5 7.2 6.5 6.5 6.5 6.5 6.5 6.5 6.5 6.5 6.5 6.5 6.5 6.5 6.5 6.5 6.5 6.5 6.5 6.5 6.5 6.5 6.5
6.0 5.4 6.4 5.7 5.8 5.3 4.2 2.5 2.7 6.3 6.8 6.6 6.5 6.7 6.9 6.5 6.5 6.5 6.9 6.9 6.2 6.4 6.5 6.5 6.5 6.5 6.5 6.5 6.5 6.5 6.5 6.5 6.5 6.5 6.5 6.5 6.5 6.5 7.0 6.7 6.5 6.7 6.8 6.6
5.6 5.6 6.2 5.8 6.3 5.5 4.2 2.4 1.6 5.3 7.1 6.4 5.5 6.7 6.7 6.9 6.8 6.5 6.8 7.0 7.0 6.3 6.5 6.5 6.5 6.5 6.5 6.5 6.5 6.5 6.5 6.5 6.5 6.5 6.5 6.5 6.5 6.7 7.1 6.5 6.5 7.0 7.2 7.1
5.6 6.4 6.4 6.6 6.2 5.6 4.2 1.9 0.6 3.6 6.1 6.4 5.2 4.5 6.0 6.7 7.1 6.5 6.9 6.6 6.5 6.6 6.5 6.5 6.5 6.5 6.5 6.5 6.5 6.5 6.5 6.5 6.5 6.5 6.5 6.5 6.9 6.7 6.5 6.7 7.0 7.3 7.3 7.4
5.8 6.3 6.3 6.4 5.8 5.4 3.6 3.5 1.8 1.7 3.8 5.8 4.8 4.4 3.7 3.1 3.7 6.2 5.3 6.9 6.9 7.0 6.5 6.5 6.5 6.5 6.5 6.5 6.5 6.5 6.5 6.5 6.5 6.5 6.5 6.8 7.2 7.0 6.1 6.3 7.3 7.0 7.3 6.4
6.0 6.4 6.3 6.1 5.8 5.3 4.7 3.6 2.2 3.7 5.0 5.9 5.9 5.8 4.9 3.6 2.4 2.1 6.8 5.2 4.8 5.3 4.2 6.9 6.5 6.5 6.5 6.5 6.5 6.5 6.5 6.9 6.5 6.5 6.5 6.7 7.1 6.2 5.7 5.8 6.6 5.9 6.0 6.1
6.1 6.4 6.1 6.4 6.1 5.4 4.9 4.0 1.7 3.9 5.5 6.8 6.7 4.7 4.3 3.4 2.2 1.7 2.0 2.9 2.5 3.3 4.8 6.9 6.5 6.5 6.9 6.5 6.5 6.5 6.7 6.7 6.5 6.5 6.6 6.9 7.1 6.4 6.3 5.5 5.2 5.2 5.2 5.8
5.8 6.2 6.7 6.1 5.7 4.7 3.8 2.6 1.3 1.5 5.5 6.8 6.9 4.3 4.3 3.9 3.2 2.9 3.0 4.0 4.4 5.4 6.6 6.6 6.5 6.9 6.7 6.7 6.6 6.5 7.0 6.5 6.5 6.5 6.9 6.9 7.0 5.5 5.4 5.7 5.7 5.7 5.6 5.8
5.2 5.8 6.2 5.4 4.9 5.1 5.9 6.5 2.6 1.4 2.9 5.0 6.5 5.3 5.0 4.3 4.0 3.9 3.3 2.9 3.0 4.4 7.1 6.9 7.2 5.8 6.9 6.5 6.5 6.7 7.0 5.7 6.1 6.9 5.1 5.6 4.7 3.9 4.3 5.9 5.6 5.5 5.6 5.9
5.6 5.5 5.7 5.9 5.6 4.4 5.9 5.5 3.7 1.7 2.4 4.6 6.7 6.7 5.6 3.9 4.1 3.6 4.3 3.1 3.4 5.3 6.3 7.0 7.0 7.1 7.1 6.5 6.5 6.8 6.2 6.2 5.3 5.0 5.4 6.1 5.1 6.4 5.0 5.6 5.5 5.4 5.3 5.4
5.8 5.2 5.6 5.9 5.0 4.2 4.4 3.0 2.3 1.5 3.0 3.3 6.5 6.5 6.5 4.9 6.3 6.9 3.2 5.7 5.5 5.3 7.1 6.6 6.8 7.0 7.0 6.5 6.7 6.5 5.5 5.4 5.1 4.9 5.1 5.1 4.5 4.6 4.6 5.1 5.3 5.8 6.1 5.7
5.7 5.5 5.1 5.6 5.2 5.5 3.7 2.5 2.2 0.9 3.9 5.1 6.5 6.5 6.5 5.5 5.7 5.5 5.9 5.3 6.5 5.9 6.6 6.7 6.8 6.5 6.5 6.5 6.8 6.5 5.2 6.0 5.8 4.8 5.0 4.8 5.3 5.2 5.2 5.3 5.7 5.7 5.9 5.3
6.2 5.7 5.6 5.6 3.9 2.3 2.9 3.6 4.7 3.3 2.2 2.9 6.6 5.5 6.5 6.4 6.9 6.8 6.8 6.9 6.5 6.5 6.6 7.3 6.5 6.5 7.0 6.0 5.5 5.1 4.8 5.2 4.6 5.0 5.2 4.7 4.4 5.2 5.6 5.7 5.1 4.8 4.9 5.0
5.3 4.9 5.1 3.4 2.4 4.5 3.9 5.0 5.6 5.7 6.4 5.8 6.1 6.2 6.6 5.8 6.5 6.5 7.0 6.5 6.5 6.5 6.5 6.5 6.5 6.5 6.6 5.1 4.9 4.2 4.7 5.1 5.0 5.4 5.3 5.2 5.3 5.4 5.3 5.4 4.9 4.7 5.2 5.6
4.7 4.2 3.3 3.5 4.1 4.2 6.4 6.5 6.5 6.5 6.5 6.4 6.8 6.6 6.3 5.7 5.2 6.8 6.9 6.5 6.5 6.5 6.9 6.5 6.5 6.5 5.6 5.0 4.9 4.0 4.4 4.8 4.7 4.9 5.1 4.9 5.2 4.8 4.5 4.6 4.8 5.0 5.1 5.2
3.5 3.8 4.0 5.0 5.2 6.5 6.5 6.5 6.5 6.5 6.7 6.4 6.7 6.5 5.6 5.2 6.0 6.9 6.5 6.5 6.5 7.0 6.5 6.5 6.5 6.7 5.0 4.7 4.2 3.2 3.1 3.9 4.5 4.7 4.9 4.9 4.6 4.1 4.1 4.6 4.8 4.6 4.7 5.3
4.7 4.7 6.5 6.5 6.5 6.5 6.5 6.5 6.5 5.4 5.1 6.0 5.9 6.8 6.7 6.6 6.6 6.6 6.5 6.5 6.6 6.5 6.5 6.5 6.5 4.8 4.7 4.1 3.9 3.7 3.8 3.6 3.0 3.6 3.7 3.5 2.9 3.0 3.1 3.5 4.2 4.6 5.1 5.3
5.0 4.4 6.5 6.5 6.4 5.1 4.6 2.8 4.4 4.0 5.0 5.1 5.3 6.2 6.8 6.5 6.5 6.5 6.5 6.5 6.5 6.5 6.5 6.5 4.7 3.1 3.3 3.7 3.6 4.2 4.2 4.2 4.3 3.9 3.0 2.1 1.6 2.0 2.8 3.8 3.6 4.0 4.2 4.5
3.4 2.4 5.8 5.8 6.3 6.3 5.7 4.8 5.0 3.9 5.5 3.2 4.5 6.5 6.5 6.5 6.5 6.5 6.5 6.5 6.5 6.5 6.5 4.3 2.8 2.7 2.7 3.1 3.2 3.5 3.9 4.0 4.3 4.2 3.8 3.8 3.8 3.7 3.3 2.7 3.4 3.5 3.7 3.8
5.3 5.4 3.9 4.7 4.3 5.1 5.1 4.9 4.8 4.2 5.9 6.5 6.4 6.5 6.5 6.5 6.5 6.5 6.5 6.5 6.5 5.4 3.1 1.3 1.7 2.0 1.8 2.4 2.8 2.8 3.0 3.5 3.7 3.4 3.5 3.0 2.3 1.2 1.9 3.2 3.9 3.3 3.6 3.7
Wind_Speed
34 33 33 34 26 6 8 3 4 4 4 3 2 3 1 3 4 2 3 2 4 4 4 4 3 3 1 4 2 2 0 2 3 3 1 3 2 4 4 2 2 4 4 5
31 31 31 39 16 12 1 3 3 2 2 3 2 3 2 3 3 1 0 1 1 2 4 5 4 2 3 5 3 3 2 3 2 2 1 2 4 5 4 3 2 4 1 5
30 27 29 16 15 16 2 3 3 3 3 2 5 2 3 4 3 2 4 2 2 5 6 6 5 2 4 5 3 7 2 4 5 4 4 3 2 6 7 6 4 4 5 11
27 24 25 11 22 22 2 3 3 1 2 3 7 2 2 8 2 2 3 3 3 4 5 6 4 3 1 2 6 3 2 4 3 7 4 2 5 7 9 6 5 4 6 10
24 19 19 19 17 15 2 3 3 1 4 6 2 1 5 5 3 4 3 7 5 7 5 4 5 3 2 2 4 3 3 3 2 5 8 6 6 6 4 5 3 6 9 7
25 20 19 20 13 3 2 1 1 1 3 4 2 3 4 4 4 6 5 9 10 13 6 7 8 10 8 5 2 2 2 3 1 1 5 4 3 6 5 2 3 2 2 4
23 21 21 18 1 4 2 2 0 2 4 4 1 4 4 4 4 5 3 5 5 3 7 8 8 10 11 11 11 4 3 3 2 1 3 2 4 6 5 5 1 2 4 5
22 24 23 4 12 10 3 1 1 2 5 3 4 6 9 9 10 5 4 6 3 5 1 3 2 2 2 7 8 10 5 2 3 0 1 2 1 0 1 2 2 2 1 5
24 26 6 24 15 16 4 3 2 2 5 4 2 2 3 5 3 3 4 3 1 2 2 2 2 2 1 2 0 1 3 4 1 1 1 0 3 2 0 1 3 5 4 6
25 12 18 14 10 17 5 3 4 2 4 3 4 3 3 1 3 4 1 1 1 1 2 2 2 2 1 0 2 3 2 2 2 1 1 1 2 3 2 3 3 7 7 7
22 16 13 13 12 9 5 2 4 2 4 5 4 3 2 1 1 3 2 2 1 1 2 1 2 1 2 1 0 1 1 0 1 1 2 1 5 3 3 2 2 5 6 6
12 15 13 13 9 4 4 3 3 5 5 4 1 2 4 2 3 0 1 2 1 1 2 1 2 2 1 1 1 1 2 2 1 4 0 1 4 2 0 2 2 4 6 5
5 14 10 5 11 14 8 2 1 3 3 3 1 3 2 1 2 1 1 2 2 2 2 2 2 1 2 2 3 2 4 3 3 3 3 7 6 5 4 4 4 3 2 3
7 14 11 6 6 10 9 3 2 2 3 3 2 1 2 7 4 3 2 0 3 4 1 1 1 1 2 1 1 3 1 6 4 5 6 4 9 8 5 6 3 3 2 1
8 9 10 7 6 10 12 4 3 2 1 3 2 2 3 5 7 7 5 3 2 1 1 1 1 2 2 0 2 4 6 5 5 3 2 1 2 1 8 7 5 3 3 2
2 12 11 11 10 3 1 1 2 5 1 3 3 2 3 5 5 8 8 5 3 2 1 2 1 0 2 2 3 3 7 4 0 0 1 0 2 3 3 4 3 3 3 2
9 14 13 9 5 4 1 0 2 4 1 2 3 0 2 3 2 2 2 3 2 2 2 1 1 2 1 2 4 2 3 4 4 2 3 1 2 2 4 3 3 1 0 1
15 15 13 12 14 9 2 3 5 3 3 2 3 0 1 3 1 1 2 1 1 3 2 1 1 1 1 4 7 2 3 4 3 5 1 2 2 3 4 2 1 2 2 3
17 17 14 3 3 1 1 3 5 4 0 2 2 4 2 2 1 0 1 2 1 1 1 1 1 2 5 4 3 5 7 5 6 6 3 3 2 3 3 2 1 3 4 5
12 4 2 0 1 6 3 2 2 2 2 2 2 1 3 1 0 1 1 2 1 1 1 1 3 4 6 5 4 2 8 6 10 5 2 3 2 3 2 0 1 3 5 7
2 2 1 1 5 1 2 1 1 0 2 3 2 2 4 2 2 2 1 1 0 2 2 2 2 4 3 1 5 3 8 8 7 3 3 3 3 3 1 2 2 4 6 7
4 4 3 2 2 2 2 2 1 4 3 3 4 3 2 3 1 2 2 2 1 3 2 2 3 4 3 3 4 4 8 8 7 4 5 4 3 1 1 3 4 4 6 7
3 3 3 1 1 1 6 7 3 2 5 5 4 4 3 3 1 3 2 4 3 3 2 4 5 1 3 5 6 6 4 5 5 5 4 3 1 1 2 4 3 5 7 9
2 3 4 5 4 6 5 3 2 2 4 7 4 4 2 2 3 3 3 1 2 2 3 6 2 6 7 7 6 8 8 7 5 4 2 1 2 3 3 3 4 5 9 11
2 5 5 5 3 2 3 1 0 1 6 6 4 3 2 2 3 3 3 3 5 6 4 2 3 6 8 9 8 7 8 7 5 4 2 2 2 3 5 3 4 7 8 9
2 2 3 4 1 1 2 2 2 2 6 3 3 3 2 4 4 5 8 6 6 3 3 2 5 7 7 8 7 6 5 6 4 3 2 1 2 3 5 7 5 5 7 8
5 4 3 0 2 3 2 2 2 3 5 3 3 6 6 3 2 4 5 5 3 3 3 3 4 6 7 7 7 6 6 5 4 2 1 0 2 2 2 5 6 7 7 7
Wind_Direction
337 339 343 345 350 4 27 40 75 144 141 102 243 117 42 93 113 75 222 110 109 106 116 95 87 68 45 358 292 291 32 51 59 37 13 263 297 11 339 11 100 53 81 125
343 347 356 343 92 42 36 59 76 95 5 121 138 71 81 88 108 244 95 83 58 108 107 105 77 61 7 18 26 5 13 34 79 29 139 147 26 26 33 42 53 32 18 129
349 357 358 44 46 31 44 88 93 58 21 317 146 86 105 114 67 41 66 89 97 111 83 52 121 101 16 1 48 41 344 59 24 56 46 330 43 37 13 13 37 94 37 136
355 3 5 67 4 6 58 32 60 112 137 98 107 10 99 136 95 49 30 62 82 95 99 90 89 59 43 30 7 45 34 71 79 73 46 88 57 39 37 59 35 37 133 161
356 1 1 353 352 346 64 105 136 162 115 91 56 40 132 124 119 7 38 113 84 91 97 67 128 138 46 18 28 46 14 114 36 26 19 53 100 86 103 80 78 86 134 117
351 354 349 346 356 9 71 52 105 237 59 97 34 21 121 127 136 57 53 110 87 73 64 83 78 81 72 59 7 70 41 131 11 42 343 302 120 25 36 75 72 355 114 68
348 346 345 339 50 108 94 55 68 86 98 101 36 341 98 75 23 110 26 32 88 78 125 119 104 83 83 60 47 19 115 87 30 75 306 44 19 355 335 343 20 90 100 109
348 344 337 59 135 115 85 66 273 87 104 83 53 77 104 87 68 57 42 21 48 143 16 98 96 56 98 33 33 32 35 113 99 241 76 115 155 250 341 327 11 359 126 143
352 344 32 129 111 92 87 57 319 43 121 51 324 9 93 106 89 59 58 57 23 2 52 71 69 69 21 56 39 26 47 55 50 121 74 66 72 133 346 314 223 191 190 174
355 55 109 117 85 71 80 55 12 56 95 37 339 47 38 54 80 88 160 342 121 308 55 70 64 92 320 88 21 3 19 24 53 99 312 169 166 152 170 233 76 175 193 188
1 120 114 108 97 73 66 54 6 42 94 46 6 11 17 19 6 133 134 184 106 62 67 74 102 97 91 204 259 313 345 174 161 160 239 237 170 141 218 63 162 178 191 196
13 137 123 93 91 131 118 78 22 34 73 97 111 88 73 15 308 357 51 45 85 115 113 101 124 140 190 214 214 179 220 245 313 226 7 86 182 271 356 215 192 188 209 201
67 157 170 138 62 54 80 94 13 66 101 100 41 359 4 309 297 274 259 186 144 132 1 114 91 191 210 213 219 225 215 182 247 282 171 227 216 220 236 212 228 205 202 208
88 148 153 138 71 49 57 44 356 34 89 101 51 345 14 333 342 215 240 227 92 88 37 98 132 226 220 237 358 253 39 161 209 252 252 270 238 227 225 206 198 173 157 166
69 120 151 139 98 84 80 68 21 1 342 121 143 308 17 0 25 53 58 79 77 73 110 76 124 106 187 114 264 239 190 187 197 251 148 292 102 325 207 194 195 198 210 225
84 128 112 103 99 54 11 308 51 5 30 113 148 347 338 350 13 43 46 41 55 59 67 103 122 25 272 224 245 246 197 196 286 155 96 19 29 15 139 181 181 191 222 253
173 142 127 116 64 74 69 0 328 340 319 100 106 270 18 330 347 36 27 36 56 33 102 128 169 178 249 247 239 159 202 183 175 172 147 171 190 50 157 144 133 128 87 296
150 135 123 107 98 116 92 12 350 349 90 55 120 318 284 1 57 110 354 33 79 36 91 158 217 160 235 252 242 177 141 143 157 161 115 74 103 132 154 141 161 271 316 325
125 121 118 89 36 53 62 313 341 30 53 135 141 167 193 3 64 354 137 345 216 42 217 175 249 189 230 245 225 189 186 182 168 154 134 136 182 159 163 189 228 299 322 308
119 52 43 225 359 324 327 16 359 13 0 46 158 125 148 155 151 103 142 8 84 246 109 142 229 258 267 245 228 218 182 166 148 138 181 202 227 205 206 220 340 284 291 299
42 73 33 334 327 23 31 204 174 328 251 173 134 190 137 194 152 150 244 158 132 245 141 240 241 259 229 215 191 183 171 167 171 115 102 132 129 162 217 296 288 289 287 282
126 117 83 29 30 47 172 217 285 213 226 147 157 167 124 138 189 130 171 166 165 238 138 224 248 242 198 179 169 154 168 165 162 148 144 142 141 166 254 280 286 283 286 302
74 66 47 61 202 214 202 198 225 220 169 167 165 145 138 137 172 95 150 182 208 133 202 237 237 155 179 172 155 146 157 165 152 153 156 144 163 272 251 278 274 287 296 299
109 116 278 197 208 245 202 208 186 148 131 143 134 113 179 138 139 146 148 135 167 217 241 232 212 196 180 169 160 149 168 172 166 167 161 205 298 292 281 281 302 302 300 308
143 129 217 232 311 313 332 341 256 158 140 130 114 97 149 149 123 165 119 166 241 228 230 221 183 164 160 167 168 169 168 171 175 175 202 258 292 308 309 332 318 307 307 312
144 218 187 199 222 298 281 246 251 212 144 108 88 122 152 208 153 162 207 176 223 227 213 187 149 160 167 169 169 166 152 167 175 178 222 266 293 306 314 314 317 325 320 316
203 234 278 114 144 204 217 220 234 171 166 194 143 167 205 110 179 234 194 213 225 183 164 156 167 163 165 158 151 151 155 168 177 177 169 341 349 322 315 323 334 324 314 303